Location: Aurich
(48.9145°N, 8.9449°E)
Time: 21:55:41
(UTC+00:00)

Daily predictions for brighter satellites

Satellite Brightness Start Highest point End
(mag) Time Altitude Azimuth Time Altitude Azimuth Time Altitude Azimuth
Cosmos 724 4.3 15:51:08 10° NW 15:57:13 70° NE 16:03:05 10° SE
CZ-4C R/B 3.0 15:53:18 10° NW 15:59:58 65° NE 16:08:22 10° SE
Cosmos 2266 Rocket 4.4 15:55:47 10° N 16:01:34 40° ENE 16:07:12 10° SE
Cosmos 405 Rocket 2.3 16:00:05 10° NNW 16:03:20 86° W 16:06:33 10° S
CBERS-1 4.0 15:59:35 10° SSE 16:04:38 68° ENE 16:09:44 10° N
SMAP 3.5 16:01:47 10° SE 16:06:07 40° ENE 16:10:28 10° N
Cosmos 2297 Rocket 2.2 16:03:41 10° NNW 16:09:24 78° ENE 16:15:04 10° SSE
Landsat 7 4.3 16:06:45 10° SE 16:10:57 35° ENE 16:15:11 10° N
Cosmos 1626 Rocket 3.5 16:09:52 10° N 16:14:13 89° WSW 16:18:30 10° S
Meteor 1-28 Rocket 3.0 16:11:50 10° NNE 16:15:07 53° E 16:18:23 10° S
NOSS 2-2 (C) 4.0 16:13:42 10° WSW 16:16:36 32° NW 16:19:21 10° NNE
Cosmos 1315 Rocket 4.1 16:18:33 10° SW 16:22:09 38° WNW 16:25:46 10° N
BlueWalker 3 4.3 16:20:21 10° W 16:23:21 25° SW 16:26:21 10° SSE
Cosmos 1606 Rocket 4.4 16:19:42 10° SSE 16:23:31 29° E 16:27:22 10° NNE
ATLAS CENTAUR R/B 2.7 16:22:45 10° NW 16:25:43 33° WSW 16:28:33 10° S
Thor Agena Rocket 3.5 16:21:52 10° SSE 16:27:04 77° ENE 16:32:13 10° NNW
Cosmos 1503 Rocket 4.2 16:22:46 10° S 16:27:52 55° ESE 16:32:56 10° NNE
Cosmos 2219 4.1 16:24:11 10° NNW 16:29:01 27° NE 16:33:49 10° ESE
CENTAUR R/B 3.5 16:23:54 10° W 16:29:34 42° NNW 16:36:40 10° NE
Cosmos 1484 Rocket 3.3 16:28:19 10° S 16:31:46 55° W 16:35:13 10° NNW
Cosmos 1544 Rocket 3.7 16:28:14 10° SSW 16:32:38 79° W 16:37:06 10° N
USA 290 2.8 16:29:58 10° NNW 16:33:12 62° WSW 16:36:25 10° SSE
SL-16 R/B 2.7 16:27:18 10° NNE 16:33:33 83° WNW 16:39:45 10° SSW
AQUARIUS 4.5 16:29:57 10° SE 16:34:05 41° ENE 16:38:14 10° N
GEOS 3 Rocket 3.9 16:28:51 10° NE 16:34:06 60° SE 16:39:24 10° SSW
Cosmos 1980 Rocket 3.4 16:30:39 10° SSE 16:34:52 22° E 16:37:57 14° ENE
Lacrosse 5 rocket 2.4 16:31:54 10° WNW 16:35:09 27° NNW 16:37:41 14° NE
Cosmos 1844 Rocket 4.3 16:32:47 10° N 16:35:43 14° NNE 16:37:19 13° NE
Cosmos 1354 Rocket 4.3 16:32:29 10° S 16:37:30 47° ESE 16:42:32 10° NNE
Meteor 1-25 Rocket 4.3 16:33:26 10° N 16:39:14 63° ENE 16:44:56 10° SSE
Meteor 1-5 Rocket 4.5 16:34:13 10° N 16:39:16 42° ENE 16:44:26 10° SE
Lacrosse 4 Rocket 3.6 16:37:12 10° WNW 16:39:50 17° NW 16:42:28 10° N
BREEZE M DEB (TANK) 2.8 16:37:51 10° SW 16:40:12 31° SSE 16:41:17 19° ESE
CORIOLIS 4.1 16:35:57 10° SSE 16:41:17 87° ENE 16:46:40 10° NNW
IRIDIUM 104 4.3 16:38:45 10° N 16:44:00 78° E 16:49:13 10° S
Cosmos 1777 Rocket 4.0 16:38:47 10° SSW 16:44:02 85° ESE 16:49:19 10° NNE
Cosmos 2263 Rocket 2.5 16:38:53 10° NNW 16:44:17 42° NE 16:49:40 10° ESE
Cosmos 1726 Rocket 4.2 16:43:05 10° SSE 16:47:22 39° E 16:51:39 10° NNE
CZ-2D R/B 2.6 16:44:55 10° SSE 16:48:00 60° ENE 16:51:07 10° N
USA 238 DEB 4.3 16:44:41 10° S 16:49:58 32° ESE 16:53:47 18° ENE
USA 238 4.3 16:44:49 10° S 16:50:06 32° ESE 16:53:52 18° ENE
Okean 1-7 Rocket 3.5 16:46:51 10° N 16:51:15 82° E 16:55:37 10° SSE
IRIDIUM 114 4.3 16:47:53 10° N 16:53:08 89° W 16:58:22 10° S
Cosmos 1602 Rocket 3.9 16:48:48 10° NNW 16:53:10 67° W 16:57:27 10° S
ERS-1 4.4 16:48:36 10° SSE 16:53:34 69° ENE 16:58:31 10° N
Cosmos 1461 2.8 16:51:51 10° SW 16:55:44 78° NW 16:58:30 19° NE
Cosmos 1933 3.1 16:53:38 10° S 16:57:26 69° E 17:01:16 10° NNE
USA 215 3.8 16:53:50 17° ENE 16:58:28 44° N 17:04:36 10° WNW
IRS-1C 4.1 16:53:57 10° SSE 16:59:16 90° ENE 17:04:38 10° NNW
YAOGAN 1 3.2 16:56:23 10° SE 17:00:06 30° ENE 17:03:50 10° N
Cosmos-2242 4.1 16:56:51 10° SE 17:00:12 23° E 17:00:12 23° E
Cosmos 2227 Rocket 2.1 16:55:09 10° NNW 17:00:50 85° ENE 17:06:30 10° SSE
SKYMED 2 4.3 16:58:49 20° NE 17:01:03 33° E 17:04:58 10° SSE
BREEZE-M DEB (TANK) 4.2 16:58:11 10° SSW 17:01:17 18° SSE 17:02:21 16° SE
NOSS 2-3 (E) 3.6 16:58:48 10° SSW 17:02:16 42° SE 17:03:38 29° ENE
NOSS 2-3 (D) 3.7 16:59:29 10° SSW 17:02:56 39° ESE 17:04:13 29° ENE
Cosmos 1743 4.3 17:00:42 10° NNW 17:03:37 31° W 17:06:30 10° SSW
SJ-12 3.7 17:00:21 10° SSE 17:04:07 86° WSW 17:07:56 10° NNW
Cosmos 2151 4.0 17:03:13 10° NNW 17:07:13 47° W 17:11:13 10° SSW
Cosmos 1655 Rocket 3.9 17:06:58 10° N 17:13:14 71° E 17:19:25 10° SSE
Meteor 2-10 4.2 17:09:09 10° N 17:14:23 51° ENE 17:19:46 10° SSE
Cosmos 1697 Rocket 2.6 17:09:12 10° SSW 17:14:48 87° ESE 17:19:15 17° NNE
Cosmos 990 Rocket 3.9 17:10:00 10° SSW 17:15:06 81° ESE 17:19:09 17° NNE
CZ-4 R/B 4.2 17:11:40 10° SSE 17:15:33 62° ENE 17:19:28 10° N
Cosmos 1867 4.2 17:10:24 10° NW 17:15:45 57° WSW 17:21:04 10° SSE
MOS 1 Rocket 3.5 17:11:56 10° SSE 17:16:52 84° WSW 17:22:07 10° NNW
Cosmos 1953 Rocket 3.5 17:12:36 10° N 17:17:02 66° E 17:21:27 10° SSE
Aureole 1 Rocket 3.7 17:13:18 10° S 17:17:30 41° ESE 17:19:37 28° NE
SAR-Lupe-4 4.3 17:14:05 10° S 17:17:33 53° WSW 17:21:04 10° NNW
ARIANE 5 R/B 3.2 17:19:20 10° S 17:24:17 56° W 17:29:22 10° NNW
Cosmos 1825 Rocket 4.1 17:22:03 10° NNW 17:26:20 60° W 17:30:34 10° S
COSMOS 2455 4.3 17:26:56 10° SSE 17:29:38 18° SE 17:29:38 18° SE
NOAA 6 4.2 17:26:53 10° SE 17:31:44 47° ENE 17:36:37 10° N
Cosmos 1680 Rocket 4.3 17:27:43 10° N 17:31:46 31° NE 17:31:46 31° NE
USA 81 3.9 17:28:50 10° N 17:34:07 71° E 17:39:22 10° SSE
CZ-2D R/B 3.3 17:31:22 10° SSE 17:35:33 78° ENE 17:39:42 10° NNW
Radarsat Rocket 4.5 17:29:06 10° SSE 17:37:09 70° ENE 17:44:19 10° NNW
IRAS Rocket 4.1 17:32:41 10° SSE 17:38:05 63° ENE 17:43:31 10° NNW
Gbstr 26 Del rocket 2.4 17:35:19 10° WSW 17:39:18 84° SSE 17:39:37 73° E
Meteor 2-2 Rocket 4.3 17:33:53 10° S 17:39:21 54° E 17:41:51 31° NE
NOSS 3-2 (C) 3.8 17:34:43 10° WSW 17:39:48 53° NW 17:43:16 25° NNE
SPOT 1/Viking Rocket 3.6 17:36:03 10° SSE 17:41:15 80° WSW 17:46:30 10° NNW
PSLV R/B 3.2 17:43:07 67° E 17:43:13 67° ENE 17:47:16 10° N
Cosmos 1076 Rocket 4.0 17:40:10 10° NNW 17:44:25 60° W 17:48:39 10° S
SL-19 R/B 4.1 17:41:28 10° SSE 17:46:51 76° ENE 17:52:34 10° NNW
Cosmos 2082 3.6 17:42:26 10° NNW 17:48:08 67° ENE 17:50:41 33° SE
CZ-4C R/B 4.2 17:41:38 10° NW 17:48:21 43° WSW 17:56:24 10° S
COSMO-SKYMED 1 2.5 17:49:12 58° SE 17:49:12 58° SE 17:52:47 10° S
Cosmos 2058 Rocket 2.9 17:45:19 10° S 17:49:47 79° E 17:50:44 55° NNE
Meteor 2-11 Rocket 4.3 17:54:23 10° N 18:00:32 63° ENE 18:06:37 10° SSE
Nadezhda 2 Rocket 4.3 17:56:06 10° N 18:02:16 82° E 18:08:22 10° S
Meteor 1-26 Rocket 4.0 17:58:17 10° S 18:03:42 84° E 18:05:35 42° NNE
Cosmos 1553 Rocket 3.8 18:04:51 10° S 18:11:00 81° E 18:14:52 25° NNE
Resurs 1-3 4.2 18:07:56 10° S 18:12:09 55° W 18:16:24 10° NNW
Lacrosse 5 rocket 3.4 18:09:57 10° NW 18:11:16 17° NNW 18:11:16 17° NNW
Cosmos 2219 3.4 18:07:57 10° NNW 18:13:41 70° WSW 18:17:57 18° SSE
Cosmos 1980 Rocket 2.4 18:12:40 10° SW 18:18:18 69° WNW 18:19:44 49° N
Cosmos 1844 Rocket 3.6 18:15:32 10° NNW 18:18:59 34° N 18:18:59 34° N
CENTAUR R/B 4.2 18:16:31 10° WNW 18:22:14 27° N 18:24:02 25° NNE
Cosmos 1745 Rocket 4.4 18:20:28 10° N 18:24:48 46° N 18:24:48 46° N
Cosmos 2263 Rocket 3.5 18:22:57 10° NW 18:28:09 38° WSW 18:33:20 10° S
Cosmos 1898 Rocket 3.7 18:25:12 10° SSW 18:30:11 67° WNW 18:30:11 67° WNW
Cosmos 2369 3.7 18:25:29 10° SSW 18:30:42 75° SSW 18:30:42 75° SSW
YAOGAN 1 4.3 18:32:07 10° SSW 18:35:54 31° W 18:39:43 10° NNW
Cosmos-2242 4.4 18:33:05 10° SW 18:36:35 36° W 18:36:35 36° W
USA 238 DEB 3.8 18:34:16 10° SW 18:40:24 64° NW 18:41:14 59° N
USA 238 3.8 18:34:21 10° SW 18:40:31 65° NW 18:41:20 60° N
USA 215 3.4 18:41:10 57° N 18:41:10 57° N 18:47:18 10° WNW
Cosmos 1937 Rocket 4.5 18:43:59 10° SW 18:47:30 42° SW 18:47:30 42° SW
COSMOS 2455 4.4 19:10:18 10° SW 19:12:49 26° SW 19:12:49 26° SW
